Temp
65 67 66 65 65 64 63 61 61 61 61 61 60 61 61 60 60 59 58 56 55 57
64 64 62 62 63 63 62 61 60 61 60 60 60 60 61 59 57 58 56 55 55 55
62 62 62 62 61 60 60 61 60 60 60 59 59 59 59 58 57 56 56 56 53 53
61 61 61 61 60 60 60 60 60 60 59 58 58 58 57 57 56 55 55 54 53 52
60 61 60 59 60 60 59 59 59 59 58 58 57 56 56 55 55 54 53 53 53 52
59 60 59 58 58 59 58 58 58 58 56 56 55 55 55 55 55 55 54 53 52 52
59 59 59 59 59 58 59 58 58 57 56 55 54 52 53 55 54 54 54 53 53 52
59 59 58 58 58 58 58 58 58 56 56 55 53 47 45 51 54 54 53 54 54 53
59 58 57 56 56 55 55 56 56 56 55 54 50 38 38 40 51 54 53 52 52 53
57 56 55 56 55 54 54 55 54 54 54 52 47 37 37 37 50 53 52 51 51 51
57 56 55 55 55 54 54 54 53 53 53 52 44 36 36 36 51 53 52 51 51 48
56 55 55 54 54 55 54 54 53 53 52 52 46 36 36 38 53 52 51 52 50 47
57 56 55 55 54 54 55 54 54 52 51 41 48 34 36 37 51 48 49 50 49 35
58 56 56 55 55 54 54 53 52 51 51 50 45 40 36 36 47 44 47 47 45 44
MSLP
1021.26 1021.48 1021.78 1022.18 1022.28 1022.59 1023.03 1023.62 1023.89 1024.17 1024.30 1024.39 1024.48 1024.28 1024.08 1024.21 1024.08 1024.22 1024.25 1024.59 1024.66 1024.24
1021.49 1021.76 1022.25 1022.70 1022.78 1022.91 1023.33 1023.84 1024.27 1024.52 1024.68 1024.79 1024.87 1024.69 1024.34 1024.54 1024.73 1024.69 1024.96 1025.06 1025.10 1024.89
1021.80 1022.18 1022.60 1022.85 1023.15 1023.46 1023.87 1024.08 1024.47 1024.76 1024.90 1025.10 1025.13 1024.99 1024.80 1024.86 1025.33 1025.26 1025.39 1025.47 1025.63 1025.49
1021.94 1022.44 1022.86 1023.21 1023.60 1023.94 1024.12 1024.41 1024.65 1024.90 1025.13 1025.30 1025.31 1025.44 1025.36 1025.38 1025.57 1025.52 1025.69 1025.85 1025.78 1025.76
1022.10 1022.63 1023.09 1023.46 1023.98 1024.12 1024.45 1024.75 1024.85 1025.05 1025.39 1025.65 1025.75 1025.93 1025.88 1025.84 1025.91 1025.93 1025.99 1026.08 1025.91 1025.91
1022.07 1022.66 1023.19 1023.72 1024.08 1024.34 1024.78 1024.89 1025.14 1025.35 1025.72 1026.07 1026.33 1026.33 1026.19 1026.21 1026.25 1026.27 1026.33 1026.35 1026.13 1026.00
1021.81 1022.54 1023.24 1023.73 1024.14 1024.51 1024.73 1024.90 1025.32 1025.73 1026.09 1026.40 1026.70 1027.02 1026.94 1026.57 1026.61 1026.55 1026.45 1026.38 1026.28 1026.27
1021.82 1022.53 1023.22 1023.75 1024.29 1024.71 1024.88 1025.22 1025.65 1025.97 1026.22 1026.57 1027.21 1028.45 1028.54 1027.58 1026.92 1026.67 1026.50 1026.34 1026.20 1026.13
1021.77 1022.51 1023.14 1023.86 1024.43 1024.88 1025.28 1025.64 1025.85 1026.06 1026.41 1026.85 1028.09 1029.54 1029.39 1029.12 1027.44 1026.81 1026.64 1026.39 1026.24 1026.09
1021.63 1022.38 1023.17 1023.81 1024.43 1024.93 1025.36 1025.75 1025.93 1026.25 1026.73 1027.51 1028.52 1029.59 1029.34 1029.10 1027.53 1026.91 1026.76 1026.58 1026.40 1026.23
1021.43 1022.23 1023.07 1023.64 1024.29 1024.86 1025.31 1025.62 1025.93 1026.46 1027.04 1027.62 1028.98 1029.66 1029.31 1028.70 1027.29 1026.78 1026.68 1026.60 1026.53 1026.77
1021.07 1021.95 1022.80 1023.45 1024.17 1024.65 1025.04 1025.46 1026.04 1026.52 1027.05 1027.46 1028.74 1029.67 1029.58 1029.01 1026.95 1026.87 1026.70 1026.45 1026.60 1027.13
1020.73 1021.59 1022.45 1023.20 1023.86 1024.54 1024.96 1025.39 1025.84 1026.47 1027.17 1027.73 1028.34 1029.89 1029.78 1029.23 1027.45 1027.32 1026.96 1026.69 1026.71 1028.08
1020.43 1021.35 1022.19 1023.01 1023.75 1024.40 1024.83 1025.37 1025.82 1026.38 1026.97 1027.59 1028.11 1029.37 1029.64 1029.60 1028.26 1028.34 1027.45 1027.07 1027.17 1027.36
Wind_Speed
10 6 6 6 6 6 6 6 7 7 8 8 9 7 7 8 7 8 8 11 10 7
8 7 8 8 7 6 7 7 7 7 7 8 8 8 7 7 8 8 8 8 9 8
9 9 8 7 8 8 7 8 7 7 7 8 8 9 9 8 9 8 7 7 10 9
9 9 8 8 8 8 8 7 7 7 7 8 9 9 8 7 8 8 8 8 8 10
11 10 9 9 8 8 8 7 7 7 7 8 8 8 8 8 7 7 8 8 8 9
12 11 10 10 9 9 8 8 7 7 7 7 7 8 7 6 6 6 7 7 8 9
12 12 10 10 9 9 8 8 7 7 7 6 8 9 8 5 5 5 6 6 7 8
12 12 11 10 9 8 8 7 7 7 6 7 8 8 9 7 4 5 6 6 7 8
13 13 12 11 10 9 8 7 7 6 6 6 7 8 10 9 9 5 6 7 8 9
14 13 13 12 11 10 9 8 7 6 6 7 8 8 11 12 10 5 5 6 8 9
15 14 13 12 11 11 9 8 7 6 5 6 7 9 13 17 8 4 5 6 7 9
16 15 14 13 12 10 9 8 7 6 5 5 8 8 10 14 4 5 5 6 7 7
16 15 15 14 12 10 9 9 7 7 6 3 8 8 8 11 4 5 5 6 6 14
16 16 15 13 11 10 10 9 8 7 6 6 4 7 6 9 5 6 5 5 6 7
Wind_Direction
139 126 115 97 103 92 84 79 72 66 62 54 42 39 39 46 34 36 24 29 16 1
127 120 111 115 114 101 104 106 82 76 70 59 50 43 45 52 33 36 28 28 17 5
130 128 126 122 104 101 107 101 100 90 75 65 55 47 40 46 40 35 30 28 19 12
137 134 133 125 122 118 112 108 104 95 76 63 56 46 45 48 39 36 31 23 18 20
144 143 140 133 130 126 115 110 104 95 78 66 57 49 43 42 33 28 24 19 12 18
151 150 142 139 133 130 129 118 111 99 83 72 55 43 35 36 30 24 25 13 7 7
155 149 146 142 139 135 133 123 116 113 99 81 60 40 18 16 23 15 26 13 5 12
151 150 146 143 142 138 136 128 126 124 111 88 66 36 7 338 9 3 8 10 5 19
156 153 150 150 147 145 141 144 140 126 118 99 72 20 3 337 322 353 5 3 5 357
162 158 158 157 156 158 152 147 140 132 128 103 80 19 353 340 306 346 4 5 4 359
164 161 163 163 162 161 159 154 142 142 145 129 80 29 354 327 267 359 15 9 22 6
166 164 166 167 163 164 160 155 148 146 147 145 97 46 7 329 1 14 15 18 41 17
168 167 170 167 165 163 163 157 150 141 121 63 126 57 16 355 3 11 3 18 52 78
168 169 168 161 162 165 164 154 149 148 144 141 51 101 48 6 2 6 340 12 4 3